Language: 


Des rapports , des résumés tant et plus, au choix de chacun....


Données statistiques de la station
Quotidien Rapport Février 1, 2018 Unités:  Anglais    Métrique   les deux
« Précédent Jour
Suivant Jour »
Quotidien Hebdomadaire Mensuel Annuel Actuel
  Haut: Bas: Moyen:
Température: TemperatureC °F 0.9 °F 4 °F
Pt de rosée: DewpointC °F 0.0 °F 2.5 °F
Humidité: Humidity % 61 % 88 %
Vitesse du vent: WindSpeedKMH mph 0.0 mph 8.7 mph
Rafales: WindSpeedGustKMH mph - -
Vent:- - WSW
Pression: PressurehPa in 997.9 in -
Précipitation: 3.6 in    
Historical Graphs
 
 
Données statistiques pour Février 1, 2018
Heure Température Point de rosée Pression Vent Vitesse du vent Refales Humidité Pluie (taux horaire)
TemperatureC °F DewpointC °F PressurehPa in Calm     Humidity % HourlyPrecipMM in
00:03 2.2 °F 1.0 °F 1001.9 in West 6.1 mph 8.7 mph 92 % 0.0 in
00:08 2.2 °F 1.0 °F 1001.9 in West 7.9 mph 9.7 mph 92 % 0.0 in
00:13 2.2 °F 1.0 °F 1001.9 in WSW 3.2 mph 9.7 mph 91 % 0.0 in
00:18 2.1 °F 1.0 °F 1001.9 in Calm   10.5 mph 91 % 0.0 in
00:23 2.1 °F 1.0 °F 1001.9 in Calm   10.5 mph 91 % 0.0 in
00:28 2.0 °F 1.0 °F 1001.9 in Calm     91 % 0.0 in
00:33 1.8 °F 0.0 °F 1000.9 in Calm     90 % 0.0 in
00:38 1.6 °F 0.0 °F 1000.9 in Calm     90 % 0.0 in
00:43 1.3 °F 0.0 °F 1000.9 in Calm     89 % 0.0 in
00:48 1.3 °F 0.0 °F 1000.9 in Calm     90 % 0.0 in
00:53 1.3 °F 0.0 °F 1000.9 in Calm   6.9 mph 90 % 0.0 in
00:58 1.3 °F 0.0 °F 1000.9 in WSW 9.0 mph 9.0 mph 91 % 0.0 in
01:03 1.4 °F 0.0 °F 1000.9 in WSW 8.7 mph 9.3 mph 92 % 0.0 in
01:08 1.4 °F 0.0 °F 1000.9 in WSW 8.7 mph 9.7 mph 92 % 0.0 in
01:13 1.4 °F 1.0 °F 1000.9 in Calm   9.7 mph 93 % 0.0 in
01:18 1.4 °F 1.0 °F 1000.9 in WSW 5.0 mph 9.3 mph 93 % 0.0 in
01:23 1.5 °F 1.0 °F 1000.9 in Calm   5.0 mph 93 % 0.0 in
01:28 1.4 °F 1.0 °F 1000.9 in Calm   5.0 mph 93 % 0.0 in
01:33 1.4 °F 1.0 °F 1000.9 in Calm   1.4 mph 93 % 0.0 in
01:38 1.3 °F 1.0 °F 1000.9 in Calm   5.8 mph 93 % 0.0 in
01:43 1.2 °F 1.0 °F 1000.9 in Calm   5.8 mph 93 % 0.0 in
01:48 1.3 °F 1.0 °F 1000.9 in Calm   5.8 mph 93 % 0.0 in
01:53 1.4 °F 1.0 °F 1000.9 in Calm   7.2 mph 94 % 0.0 in
01:59 1.5 °F 1.0 °F 1000.9 in SSW 8.7 mph 8.7 mph 95 % 0.0 in
02:04 1.6 °F 1.0 °F 1000.9 in SSW 1.8 mph 8.7 mph 95 % 0.0 in
02:09 1.6 °F 1.0 °F 1000.9 in Calm   8.7 mph 95 % 0.0 in
02:14 1.6 °F 1.0 °F 1000.9 in Calm   4.7 mph 95 % 0.0 in
02:19 1.5 °F 1.0 °F 1000.9 in Calm   1.4 mph 95 % 0.0 in
02:24 1.4 °F 1.0 °F 1000.9 in Calm   3.2 mph 94 % 0.0 in
02:29 1.3 °F 1.0 °F 999.9 in West 4.0 mph 4.3 mph 94 % 0.0 in
02:34 1.1 °F 0.0 °F 999.9 in Calm   4.3 mph 93 % 0.0 in
02:39 0.9 °F 0.0 °F 999.9 in Calm   7.6 mph 93 % 0.0 in
02:44 1.1 °F 0.0 °F 999.9 in Calm   7.6 mph 94 % 0.0 in
02:49 1.3 °F 1.0 °F 999.9 in WSW 7.2 mph 7.2 mph 95 % 0.0 in
02:54 1.4 °F 1.0 °F 999.9 in Calm   7.2 mph 96 % 0.0 in
02:59 1.4 °F 1.0 °F 999.9 in Calm   7.2 mph 96 % 0.0 in
03:04 1.3 °F 1.0 °F 999.9 in SSW 4.7 mph 5.5 mph 96 % 0.0 in
03:09 1.3 °F 1.0 °F 999.9 in Calm   7.6 mph 96 % 0.0 in
03:14 1.5 °F 1.0 °F 999.9 in Calm   7.6 mph 96 % 0.0 in
03:19 1.6 °F 1.0 °F 999.9 in Calm   6.1 mph 97 % 0.0 in
03:24 1.6 °F 1.0 °F 999.9 in SSW 2.6 mph 6.1 mph 97 % 0.0 in
03:29 1.6 °F 1.0 °F 998.9 in Calm   6.1 mph 97 % 0.0 in
03:34 1.6 °F 1.0 °F 998.9 in SSW 5.5 mph 5.5 mph 96 % 0.0 in
03:39 1.6 °F 1.0 °F 998.9 in Calm   5.8 mph 96 % 0.0 in
03:44 1.4 °F 1.0 °F 998.9 in SSW 5.8 mph 7.9 mph 96 % 0.0 in
03:49 1.4 °F 1.0 °F 998.9 in South 4.7 mph 7.9 mph 96 % 0.0 in
03:54 1.3 °F 1.0 °F 998.9 in South 4.0 mph 7.9 mph 96 % 0.0 in
03:59 1.3 °F 1.0 °F 998.9 in Calm   6.1 mph 96 % 0.0 in
04:04 1.2 °F 1.0 °F 998.9 in SSW 4.7 mph 6.1 mph 96 % 0.0 in
04:09 1.1 °F 1.0 °F 998.9 in Calm   5.0 mph 96 % 0.0 in
04:14 1.2 °F 1.0 °F 998.9 in SW 5.5 mph 9.3 mph 96 % 0.0 in
04:19 1.4 °F 1.0 °F 998.9 in SSW 9.7 mph 11.9 mph 97 % 0.0 in
04:24 1.6 °F 1.0 °F 998.9 in SSW 1.4 mph 11.9 mph 97 % 0.0 in
04:29 1.7 °F 2.0 °F 998.9 in SSW 8.7 mph 11.6 mph 98 % 0.0 in
04:34 1.9 °F 2.0 °F 998.9 in SSW 10.1 mph 12.2 mph 98 % 0.0 in
04:39 1.9 °F 2.0 °F 998.9 in SW 8.7 mph 12.2 mph 98 % 0.0 in
04:44 2.0 °F 2.0 °F 997.9 in Calm   12.6 mph 98 % 0.0 in
04:49 2.1 °F 2.0 °F 997.9 in South 9.7 mph 16.6 mph 98 % 0.0 in
04:54 2.2 °F 2.0 °F 997.9 in South 9.7 mph 16.6 mph 98 % 0.0 in
04:59 2.2 °F 2.0 °F 998.9 in SSW 9.7 mph 13.7 mph 98 % 0.0 in
05:04 2.2 °F 2.0 °F 998.9 in SSW 12.2 mph 14.0 mph 97 % 0.0 in
05:09 2.2 °F 2.0 °F 998.9 in South 8.7 mph 14.0 mph 97 % 0.0 in
05:14 2.2 °F 2.0 °F 998.9 in SW 10.1 mph 14.0 mph 97 % 0.0 in
05:19 2.2 °F 2.0 °F 998.9 in SW 20.6 mph 20.6 mph 97 % 0.0 in
05:25 2.3 °F 2.0 °F 998.9 in SW 11.9 mph 20.6 mph 97 % 0.0 in
05:30 2.3 °F 2.0 °F 998.9 in SSW 13.0 mph 17.7 mph 97 % 0.0 in
05:35 2.4 °F 2.0 °F 998.9 in WSW 10.1 mph 16.6 mph 97 % 0.0 in
05:40 2.4 °F 2.0 °F 998.9 in SW 9.7 mph 20.9 mph 97 % 0.0 in
05:45 2.6 °F 3.0 °F 997.9 in WSW 10.5 mph 20.9 mph 97 % 0.0 in
05:50 2.7 °F 3.0 °F 997.9 in SW 17.7 mph 22.4 mph 98 % 0.0 in
05:55 2.8 °F 3.0 °F 997.9 in SSW 19.1 mph 24.8 mph 98 % 0.0 in
06:00 2.9 °F 3.0 °F 998.9 in WSW 32.3 mph 36.7 mph 98 % 0.0 in
06:05 2.8 °F 3.0 °F 998.9 in WSW 30.2 mph 37.0 mph 98 % 0.5 in
06:10 2.7 °F 3.0 °F 998.9 in SW 21.2 mph 37.0 mph 98 % 0.8 in
06:15 2.7 °F 3.0 °F 997.9 in WSW 16.6 mph 28.0 mph 98 % 0.8 in
06:20 2.7 °F 3.0 °F 997.9 in WSW 17.2 mph 21.2 mph 98 % 0.8 in
06:25 2.8 °F 3.0 °F 997.9 in WSW 13.0 mph 21.2 mph 98 % 0.8 in
06:31 2.7 °F 3.0 °F 997.9 in WSW 13.0 mph 24.5 mph 98 % 1.3 in
06:36 2.7 °F 3.0 °F 997.9 in WSW 14.8 mph 24.5 mph 98 % 1.3 in
06:41 2.8 °F 3.0 °F 997.9 in WSW 19.8 mph 24.8 mph 98 % 1.3 in
06:46 2.7 °F 3.0 °F 997.9 in WSW 24.5 mph 24.8 mph 98 % 1.3 in
06:51 2.7 °F 3.0 °F 997.9 in WSW 16.9 mph 25.6 mph 98 % 1.3 in
06:56 2.6 °F 3.0 °F 997.9 in SW 16.6 mph 25.6 mph 98 % 1.5 in
07:01 2.7 °F 3.0 °F 997.9 in SW 13.0 mph 19.5 mph 98 % 1.3 in
07:06 2.7 °F 3.0 °F 997.9 in WSW 13.0 mph 20.9 mph 98 % 0.8 in
07:11 2.7 °F 3.0 °F 997.9 in SSW 9.3 mph 20.9 mph 98 % 0.5 in
07:16 2.7 °F 3.0 °F 997.9 in SW 16.3 mph 16.3 mph 98 % 0.5 in
07:21 2.7 °F 3.0 °F 997.9 in WSW 15.1 mph 16.6 mph 98 % 0.5 in
07:26 2.8 °F 3.0 °F 997.9 in SW 10.1 mph 16.6 mph 98 % 0.5 in
07:31 2.8 °F 3.0 °F 997.9 in SW 9.7 mph 14.0 mph 98 % 0.3 in
07:36 2.9 °F 3.0 °F 997.9 in SSW 10.5 mph 16.9 mph 98 % 0.3 in
07:41 2.9 °F 3.0 °F 997.9 in SW 9.3 mph 16.9 mph 98 % 0.3 in
07:46 2.9 °F 3.0 °F 998.9 in WSW 10.1 mph 13.0 mph 98 % 0.3 in
07:51 2.9 °F 3.0 °F 998.9 in SW 11.9 mph 13.0 mph 98 % 0.3 in
07:56 2.9 °F 3.0 °F 998.9 in SSW 9.7 mph 12.6 mph 98 % 0.0 in
08:01 2.9 °F 3.0 °F 998.9 in WSW 10.8 mph 16.6 mph 98 % 0.0 in
08:06 2.9 °F 3.0 °F 998.9 in WSW 14.0 mph 21.2 mph 98 % 0.0 in
08:11 3.0 °F 3.0 °F 998.9 in SW 22.7 mph 28.0 mph 98 % 0.0 in
08:16 3.0 °F 3.0 °F 998.9 in SW 22.4 mph 28.0 mph 98 % 0.0 in
08:21 3.0 °F 3.0 °F 998.9 in WSW 20.9 mph 23.0 mph 98 % 0.0 in
08:27 3.0 °F 3.0 °F 998.9 in SW 18.0 mph 24.5 mph 98 % 0.0 in
08:32 3.0 °F 3.0 °F 998.9 in WSW 12.2 mph 24.5 mph 98 % 0.0 in
08:37 3.0 °F 3.0 °F 998.9 in WSW 17.7 mph 21.6 mph 98 % 0.3 in
08:42 3.0 °F 3.0 °F 998.9 in WSW 16.6 mph 21.6 mph 98 % 0.3 in
08:47 3.0 °F 3.0 °F 998.9 in WSW 11.9 mph 18.0 mph 98 % 0.3 in
08:52 3.0 °F 3.0 °F 998.9 in WSW 13.7 mph 21.2 mph 98 % 0.3 in
08:57 3.0 °F 3.0 °F 998.9 in WSW 12.2 mph 21.2 mph 98 % 0.3 in
09:02 3.0 °F 3.0 °F 998.9 in WSW 15.8 mph 20.9 mph 98 % 0.3 in
09:07 3.0 °F 3.0 °F 998.9 in WSW 14.0 mph 17.7 mph 98 % 0.3 in
09:12 3.0 °F 3.0 °F 998.9 in WSW 13.7 mph 17.2 mph 98 % 0.3 in
09:17 3.0 °F 3.0 °F 997.9 in WSW 12.2 mph 21.9 mph 98 % 0.3 in
09:22 3.1 °F 3.0 °F 997.9 in WSW 14.0 mph 21.9 mph 98 % 0.3 in
09:27 3.1 °F 3.0 °F 997.9 in WSW 12.6 mph 17.7 mph 98 % 0.3 in
09:32 3.1 °F 3.0 °F 998.9 in WSW 17.7 mph 17.7 mph 98 % 0.3 in
09:38 3.1 °F 3.0 °F 998.9 in WSW 12.2 mph 17.7 mph 98 % 0.0 in
09:43 3.2 °F 3.0 °F 998.9 in WSW 19.1 mph 19.1 mph 98 % 0.0 in
09:48 3.4 °F 3.0 °F 998.9 in WSW 11.9 mph 19.1 mph 98 % 0.0 in
09:53 3.7 °F 4.0 °F 998.9 in WSW 15.8 mph 15.8 mph 98 % 0.0 in
09:58 3.6 °F 4.0 °F 998.9 in SW 13.0 mph 16.6 mph 98 % 0.0 in
10:03 3.5 °F 4.0 °F 998.9 in SW 10.1 mph 16.6 mph 98 % 0.3 in
10:08 3.6 °F 4.0 °F 998.9 in WSW 16.9 mph 27.4 mph 98 % 0.3 in
10:13 3.7 °F 4.0 °F 998.9 in West 14.0 mph 27.4 mph 98 % 0.3 in
10:18 3.7 °F 4.0 °F 999.9 in WSW 15.8 mph 20.9 mph 98 % 0.3 in
10:23 3.8 °F 4.0 °F 999.9 in WSW 8.7 mph 21.2 mph 98 % 0.3 in
10:29 4.0 °F 4.0 °F 999.9 in West 16.3 mph 20.9 mph 98 % 0.5 in
10:34 4.1 °F 4.0 °F 999.9 in West 9.3 mph 20.9 mph 98 % 0.5 in
10:39 4.2 °F 4.0 °F 999.9 in West 11.9 mph 17.7 mph 98 % 0.5 in
10:44 4.3 °F 4.0 °F 1000.9 in West 9.0 mph 23.8 mph 98 % 0.5 in
10:49 4.4 °F 4.0 °F 1000.9 in SSW 4.7 mph 23.8 mph 98 % 0.5 in
10:54 4.4 °F 4.0 °F 1000.9 in West 9.3 mph 17.2 mph 98 % 0.5 in
10:59 4.5 °F 5.0 °F 1000.9 in West 9.7 mph 17.2 mph 98 % 0.5 in
11:04 4.5 °F 5.0 °F 1000.9 in WNW 7.6 mph 17.2 mph 98 % 0.3 in
11:09 4.8 °F 5.0 °F 1000.9 in West 5.8 mph 16.9 mph 98 % 0.3 in
11:14 5.0 °F 5.0 °F 1001.9 in West 10.1 mph 16.9 mph 98 % 0.3 in
11:19 5.2 °F 5.0 °F 1001.9 in WSW 10.5 mph 19.5 mph 98 % 0.3 in
11:24 5.3 °F 6.0 °F 1001.9 in WNW 9.7 mph 19.5 mph 98 % 0.3 in
11:29 5.1 °F 5.0 °F 1000.9 in NNW 3.2 mph 19.5 mph 98 % 0.0 in
11:34 5.0 °F 5.0 °F 1000.9 in WSW 2.6 mph 10.5 mph 98 % 0.0 in
11:39 5.2 °F 5.0 °F 1000.9 in West 5.8 mph 13.7 mph 98 % 0.0 in
11:44 5.6 °F 6.0 °F 1000.9 in West 2.1 mph 13.7 mph 98 % 0.0 in
11:49 6.0 °F 6.0 °F 1000.9 in West 15.8 mph 17.7 mph 98 % 0.0 in
11:54 6.2 °F 6.0 °F 1000.9 in WNW 13.7 mph 17.7 mph 97 % 0.0 in
11:59 6.0 °F 6.0 °F 1000.9 in NNW 13.0 mph 16.9 mph 95 % 0.0 in
12:04 5.9 °F 5.0 °F 1000.9 in West 12.2 mph 16.3 mph 92 % 0.0 in
12:09 6.2 °F 5.0 °F 1000.9 in WNW 9.7 mph 24.8 mph 88 % 0.0 in
12:14 6.6 °F 5.0 °F 1000.9 in WNW 6.9 mph 24.8 mph 87 % 0.0 in
12:19 6.9 °F 5.0 °F 1000.9 in West 8.7 mph 16.3 mph 87 % 0.0 in
12:25 6.5 °F 5.0 °F 1000.9 in WNW 7.9 mph 16.6 mph 85 % 0.0 in
12:30 6.5 °F 5.0 °F 1000.9 in WNW 1.8 mph 15.8 mph 85 % 0.0 in
12:35 6.8 °F 5.0 °F 1000.9 in WSW 9.0 mph 14.0 mph 86 % 0.0 in
12:40 7.0 °F 5.0 °F 1000.9 in West 15.1 mph 16.6 mph 84 % 0.0 in
12:45 6.7 °F 4.0 °F 1000.9 in West 14.0 mph 23.0 mph 81 % 0.0 in
12:50 6.4 °F 3.0 °F 1000.9 in NW 10.1 mph 23.0 mph 79 % 0.0 in
12:55 6.2 °F 3.0 °F 1000.9 in West 15.4 mph 21.6 mph 80 % 0.0 in
13:00 6.0 °F 3.0 °F 1000.9 in WNW 4.3 mph 17.2 mph 79 % 0.0 in
13:05 6.0 °F 3.0 °F 1000.9 in NNW 5.8 mph 17.2 mph 81 % 0.0 in
13:10 6.3 °F 4.0 °F 1000.9 in NW 9.7 mph 13.7 mph 83 % 0.0 in
13:15 6.6 °F 4.0 °F 1000.9 in NW 7.9 mph 14.0 mph 82 % 0.0 in
13:21 6.4 °F 3.0 °F 1000.9 in West 10.5 mph 17.7 mph 80 % 0.0 in
13:26 6.7 °F 4.0 °F 1000.9 in West 9.7 mph 19.1 mph 81 % 0.0 in
13:31 7.2 °F 4.0 °F 999.9 in WSW 5.8 mph 19.1 mph 80 % 0.0 in
13:36 7.4 °F 4.0 °F 999.9 in West 6.1 mph 16.3 mph 77 % 0.0 in
13:41 7.6 °F 4.0 °F 999.9 in North 19.1 mph 19.8 mph 77 % 0.0 in
13:46 7.7 °F 3.0 °F 1000.9 in West 13.7 mph 20.1 mph 74 % 0.0 in
13:51 7.7 °F 3.0 °F 1000.9 in NW 10.1 mph 20.1 mph 74 % 0.0 in
13:56 8.0 °F 4.0 °F 1000.9 in NW 5.0 mph 19.8 mph 73 % 0.0 in
14:01 8.2 °F 4.0 °F 1000.9 in West 20.1 mph 21.2 mph 74 % 0.0 in
14:06 7.9 °F 3.0 °F 1000.9 in WNW 16.9 mph 21.2 mph 71 % 0.0 in
14:11 7.9 °F 3.0 °F 1000.9 in NW 9.3 mph 19.8 mph 72 % 0.0 in
14:16 8.0 °F 3.0 °F 999.9 in NNW 9.3 mph 17.2 mph 71 % 0.0 in
14:21 7.9 °F 3.0 °F 999.9 in SW 11.9 mph 16.6 mph 69 % 0.0 in
14:26 8.1 °F 3.0 °F 999.9 in SSW 7.9 mph 17.7 mph 71 % 0.0 in
14:31 8.2 °F 4.0 °F 1000.9 in West 10.5 mph 17.7 mph 72 % 0.0 in
14:36 8.0 °F 3.0 °F 1000.9 in WNW 9.7 mph 18.0 mph 70 % 0.0 in
14:41 7.8 °F 2.0 °F 1000.9 in West 12.2 mph 18.0 mph 69 % 0.0 in
14:46 7.9 °F 3.0 °F 1000.9 in WSW 13.7 mph 16.6 mph 69 % 0.0 in
14:51 8.3 °F 3.0 °F 1000.9 in NW 9.3 mph 20.9 mph 68 % 0.0 in
14:57 8.3 °F 2.0 °F 1000.9 in WSW 13.0 mph 28.5 mph 63 % 0.0 in
15:02 8.1 °F 1.0 °F 999.9 in WSW 10.8 mph 28.5 mph 62 % 0.0 in
15:07 8.1 °F 2.0 °F 999.9 in West 13.0 mph 20.9 mph 63 % 0.0 in
15:12 8.0 °F 1.0 °F 999.9 in WSW 5.8 mph 20.9 mph 62 % 0.0 in
15:17 8.4 °F 2.0 °F 999.9 in West 13.7 mph 17.2 mph 64 % 0.0 in
15:22 8.4 °F 2.0 °F 999.9 in WSW 19.8 mph 24.8 mph 62 % 0.0 in
15:27 8.3 °F 1.0 °F 999.9 in WNW 13.7 mph 24.8 mph 61 % 0.0 in
15:32 8.3 °F 2.0 °F 1000.9 in West 16.6 mph 21.6 mph 63 % 0.0 in
15:37 8.1 °F 1.0 °F 1000.9 in NNW 6.1 mph 21.2 mph 61 % 0.0 in
15:42 8.1 °F 1.0 °F 1000.9 in West 9.0 mph 21.2 mph 62 % 0.0 in
15:47 8.1 °F 1.0 °F 1000.9 in WNW 10.5 mph 20.9 mph 62 % 0.0 in
15:52 8.1 °F 2.0 °F 1000.9 in West 9.3 mph 20.9 mph 64 % 0.0 in
15:57 8.1 °F 2.0 °F 1000.9 in West 6.4 mph 15.1 mph 63 % 0.0 in
16:02 8.3 °F 2.0 °F 1000.9 in West 7.9 mph 14.0 mph 63 % 0.0 in
16:07 8.5 °F 3.0 °F 1000.9 in WSW 5.8 mph 13.0 mph 64 % 0.0 in
16:12 8.4 °F 2.0 °F 1000.9 in West 20.6 mph 23.0 mph 63 % 0.0 in
16:17 8.0 °F 1.0 °F 1000.9 in West 10.5 mph 23.0 mph 62 % 0.0 in
16:22 7.5 °F 1.0 °F 1000.9 in WNW 11.1 mph 20.9 mph 64 % 0.0 in
16:27 6.8 °F 1.0 °F 1000.9 in WNW 6.1 mph 16.9 mph 66 % 0.0 in
16:32 6.4 °F 1.0 °F 1001.9 in WNW 7.9 mph 16.9 mph 70 % 0.0 in
16:37 6.1 °F 1.0 °F 1001.9 in WSW 9.3 mph 18.3 mph 71 % 0.0 in
16:42 5.9 °F 2.0 °F 1001.9 in WSW 14.0 mph 18.3 mph 73 % 0.0 in
16:47 5.7 °F 2.0 °F 1001.9 in WNW 3.2 mph 17.7 mph 74 % 0.0 in
16:52 5.6 °F 2.0 °F 1001.9 in West 13.0 mph 15.8 mph 74 % 0.0 in
16:57 5.6 °F 2.0 °F 1001.9 in West 10.1 mph 15.8 mph 74 % 0.0 in
17:03 5.6 °F 2.0 °F 1001.9 in West 5.5 mph 15.8 mph 74 % 0.0 in
17:08 5.4 °F 2.0 °F 1001.9 in West 5.5 mph 9.3 mph 75 % 0.0 in
17:13 5.3 °F 2.0 °F 1001.9 in WNW 6.1 mph 9.0 mph 75 % 0.0 in
17:18 5.3 °F 2.0 °F 1001.9 in West 3.2 mph 6.9 mph 76 % 0.0 in
17:23 5.2 °F 1.0 °F 1001.9 in Calm   10.1 mph 76 % 0.0 in
17:28 5.1 °F 1.0 °F 1001.9 in West 5.0 mph 10.1 mph 76 % 0.0 in
17:33 5.0 °F 1.0 °F 1001.9 in Calm   9.0 mph 76 % 0.0 in
17:38 4.8 °F 1.0 °F 1001.9 in Calm   9.0 mph 77 % 0.0 in
17:43 4.6 °F 1.0 °F 1001.9 in West 4.7 mph 6.4 mph 77 % 0.0 in
17:48 4.4 °F 1.0 °F 1001.9 in West 2.1 mph 5.8 mph 77 % 0.0 in
17:53 4.3 °F 1.0 °F 1001.9 in West 4.0 mph 6.1 mph 78 % 0.0 in
17:58 4.2 °F 1.0 °F 1001.9 in West 4.0 mph 6.1 mph 78 % 0.0 in
18:03 4.1 °F 1.0 °F 1001.9 in WNW 6.4 mph 7.9 mph 79 % 0.0 in
18:08 4.0 °F 1.0 °F 1001.9 in West 4.7 mph 9.0 mph 79 % 0.0 in
18:13 3.9 °F 1.0 °F 1001.9 in WSW 7.6 mph 9.0 mph 80 % 0.0 in
18:18 3.8 °F 1.0 °F 1001.9 in WSW 4.3 mph 10.1 mph 80 % 0.0 in
18:24 3.8 °F 1.0 °F 1001.9 in WSW 5.5 mph 10.1 mph 81 % 0.0 in
18:29 3.7 °F 1.0 °F 1002.9 in West 9.7 mph 11.9 mph 81 % 0.0 in
18:34 3.9 °F 1.0 °F 1002.9 in West 1.8 mph 11.9 mph 82 % 0.0 in
18:39 4.1 °F 1.0 °F 1002.9 in WNW 4.7 mph 11.6 mph 82 % 0.0 in
18:44 4.3 °F 2.0 °F 1002.9 in NW 4.3 mph 9.7 mph 82 % 0.0 in
18:49 4.4 °F 2.0 °F 1002.9 in West 10.1 mph 10.1 mph 82 % 0.0 in
18:54 4.4 °F 2.0 °F 1002.9 in West 6.9 mph 10.1 mph 82 % 0.0 in
18:59 4.4 °F 2.0 °F 1002.9 in West 2.6 mph 9.7 mph 82 % 0.0 in
19:04 4.3 °F 2.0 °F 1002.9 in WSW 6.4 mph 10.5 mph 82 % 0.0 in
19:09 4.1 °F 1.0 °F 1002.9 in Calm   10.5 mph 82 % 0.0 in
19:14 3.9 °F 1.0 °F 1002.9 in Calm   10.1 mph 82 % 0.0 in
19:19 3.8 °F 1.0 °F 1002.9 in Calm   10.1 mph 82 % 0.0 in
19:24 3.6 °F 1.0 °F 1002.9 in Calm   8.7 mph 83 % 0.0 in
19:29 3.6 °F 1.0 °F 1002.9 in Calm   6.9 mph 84 % 0.0 in
19:34 3.6 °F 1.0 °F 1002.9 in Calm   6.9 mph 84 % 0.0 in
19:39 3.7 °F 2.0 °F 1002.9 in WSW 6.1 mph 7.9 mph 85 % 0.0 in
19:44 3.8 °F 2.0 °F 1002.9 in SW 6.4 mph 7.9 mph 85 % 0.0 in
19:49 4.0 °F 2.0 °F 1002.9 in WSW 7.6 mph 10.5 mph 85 % 0.0 in
19:54 4.1 °F 2.0 °F 1002.9 in SW 9.7 mph 10.5 mph 85 % 0.0 in
19:59 4.1 °F 2.0 °F 1002.9 in West 9.0 mph 12.2 mph 85 % 0.0 in
20:04 4.2 °F 2.0 °F 1002.9 in WSW 7.9 mph 12.2 mph 85 % 0.0 in
20:09 4.2 °F 2.0 °F 1002.9 in West 9.3 mph 14.0 mph 84 % 0.0 in
20:14 4.2 °F 2.0 °F 1002.9 in West 11.9 mph 14.0 mph 84 % 0.0 in
20:19 4.3 °F 2.0 °F 1002.9 in WSW 9.7 mph 17.7 mph 84 % 0.3 in
20:24 4.4 °F 2.0 °F 1002.9 in West 12.2 mph 20.1 mph 84 % 0.3 in
20:29 4.5 °F 2.0 °F 1002.9 in West 13.0 mph 24.8 mph 84 % 0.3 in
20:34 4.5 °F 2.0 °F 1002.9 in West 5.8 mph 24.8 mph 84 % 0.3 in
20:39 4.4 °F 2.0 °F 1002.9 in Calm   13.0 mph 85 % 0.3 in
20:44 4.4 °F 2.0 °F 1002.9 in NW 2.6 mph 9.0 mph 85 % 0.3 in
20:49 4.4 °F 2.0 °F 1002.9 in West 5.8 mph 10.1 mph 85 % 0.3 in
20:54 4.5 °F 3.0 °F 1002.9 in WNW 11.9 mph 12.6 mph 85 % 0.3 in
20:59 4.6 °F 3.0 °F 1001.9 in NE 6.9 mph 13.7 mph 86 % 0.3 in
21:04 4.6 °F 3.0 °F 1001.9 in NNE 13.0 mph 14.0 mph 86 % 0.3 in
21:09 4.4 °F 3.0 °F 1001.9 in West 9.7 mph 14.0 mph 87 % 0.3 in
21:14 4.3 °F 3.0 °F 1002.9 in WNW 11.9 mph 13.7 mph 87 % 0.3 in
21:19 4.2 °F 3.0 °F 1002.9 in West 11.9 mph 19.8 mph 87 % 0.0 in
21:24 4.1 °F 2.0 °F 1002.9 in WNW 6.1 mph 19.8 mph 88 % 0.0 in
21:29 4.1 °F 3.0 °F 1002.9 in West 6.9 mph 15.1 mph 89 % 0.0 in
21:34 4.0 °F 3.0 °F 1002.9 in West 2.1 mph 16.9 mph 90 % 0.0 in
21:39 4.0 °F 3.0 °F 1002.9 in West 11.9 mph 16.9 mph 92 % 0.0 in
21:44 3.9 °F 3.0 °F 1002.9 in West 8.7 mph 14.3 mph 93 % 0.0 in
21:49 3.8 °F 3.0 °F 1002.9 in West 7.9 mph 15.1 mph 93 % 0.0 in
21:55 3.8 °F 3.0 °F 1002.9 in WSW 6.9 mph 15.1 mph 93 % 0.0 in
22:00 3.7 °F 3.0 °F 1002.9 in West 5.8 mph 12.6 mph 94 % 0.0 in
22:05 3.7 °F 3.0 °F 1002.9 in West 6.1 mph 13.0 mph 94 % 0.0 in
22:10 3.7 °F 3.0 °F 1002.9 in West 2.6 mph 13.0 mph 95 % 0.0 in
22:15 3.8 °F 3.0 °F 1002.9 in West 13.0 mph 13.0 mph 95 % 0.0 in
22:20 3.9 °F 4.0 °F 1002.9 in WSW 7.9 mph 17.7 mph 96 % 0.0 in
22:25 4.0 °F 4.0 °F 1002.9 in West 11.6 mph 17.7 mph 96 % 0.0 in
22:30 4.0 °F 4.0 °F 1002.9 in SSW 16.9 mph 20.1 mph 97 % 0.0 in
22:35 4.1 °F 4.0 °F 1002.9 in WSW 6.1 mph 20.1 mph 98 % 0.0 in
22:40 4.1 °F 4.0 °F 1002.9 in NW 9.3 mph 18.0 mph 98 % 0.0 in
22:45 4.1 °F 4.0 °F 1002.9 in West 13.7 mph 15.1 mph 98 % 0.0 in
22:50 4.1 °F 4.0 °F 1002.9 in WSW 5.8 mph 14.0 mph 98 % 0.0 in
22:55 4.2 °F 4.0 °F 1002.9 in NNW 16.3 mph 16.3 mph 98 % 0.0 in
23:00 4.2 °F 4.0 °F 1003.9 in West 6.9 mph 16.3 mph 98 % 0.0 in
23:05 4.1 °F 4.0 °F 1003.9 in WNW 16.3 mph 19.5 mph 98 % 0.0 in
23:10 4.0 °F 4.0 °F 1003.9 in NW 6.4 mph 19.5 mph 98 % 0.3 in
23:15 3.9 °F 4.0 °F 1002.9 in NW 12.2 mph 17.7 mph 98 % 0.3 in
23:20 3.8 °F 4.0 °F 1002.9 in West 10.5 mph 17.7 mph 98 % 0.3 in
23:25 3.8 °F 4.0 °F 1002.9 in WNW 6.4 mph 15.8 mph 98 % 0.3 in
23:30 3.7 °F 4.0 °F 1003.9 in WSW 5.5 mph 17.2 mph 98 % 0.3 in
23:35 3.7 °F 4.0 °F 1003.9 in WSW 6.9 mph 17.2 mph 98 % 0.3 in
23:40 3.6 °F 4.0 °F 1003.9 in WNW 17.7 mph 17.7 mph 98 % 0.3 in
23:45 3.5 °F 4.0 °F 1002.9 in NE 7.6 mph 17.7 mph 98 % 0.8 in
23:50 3.4 °F 3.0 °F 1002.9 in NNW 13.7 mph 18.0 mph 98 % 0.8 in
23:55 3.4 °F 3.0 °F 1002.9 in West 5.0 mph 18.0 mph 98 % 1.0 in
Le Gheer Warneton
Courtoisie de Weather Underground - 2.25 mb

Mise a jour : 24/02/2018 01:26:11
Généré par Cumulus 1.9.4 (1099)